Regional Weather Roundup
Issued by NWS

Current Version | Previous Version | Text Only | Print | Product List | Glossary On
Versions: 1 2 3 4 5 6 7 8 9 10 11 12 13 14 15 16 17 18 19 20 21 22 23 24 25 26 27 28
000
ASUS42 KTBW 252310
RWRFL
FLORIDA REGIONAL WEATHER ROUNDUP
NATIONAL WEATHER SERVICE TAMPA BAY RUSKIN FL
700 PM EDT SAT OCT 25 2014

NOTE: "FAIR" INDICATES FEW OR NO CLOUDS BELOW 12,000 FEET WITH NO
SIGNIFICANT WEATHER AND/OR OBSTRUCTIONS TO VISIBILITY.


FLZ001>010-012>015-112-114-115-260000-
PANHANDLE FLORIDA

CITY           SKY/WX    TMP DP  RH WIND       PRES   REMARKS
PENSACOLA      CLEAR     73  50  44 N3        30.03R
PENSACOLA NAS  CLEAR     73  50  44 N7        30.02S
MILTON NAS     CLEAR     70  52  52 CALM      30.04S
CRESTVIEW      CLEAR     71  51  49 NW5       30.04S
DUKE FIELD     FAIR      72  51  46 NW5       30.03S
VALPARAISO     CLEAR     74  51  44 N7        30.03R
MARY ESTHER    CLEAR     71  47  42 N7        30.02R
TRI COUNTY     FAIR      66  57  72 CALM      30.02R
PANAMA CITY    FAIR      71  51  49 NW5       30.01R
TYNDALL AFB    CLEAR     73  48  42 N5        30.01R
APALACHICOLA   CLEAR     73  49  42 N6        29.99S

STATION/POSITION SKY/WX   TEMP    WIND        PRES    WAVE   SWELL
                          AIR SEA DIR/SP/G            HT/PER HT/PER
                          (F)     (DEG/KT/KT) (MB)    (FT/S) (FT/S)
30.1N   87.6W              77 78   10/ 12/ 16 1016.4S   2/ 3
29.2N   88.2W              73 78  340/ 12/ 14 1017.8F   3/ 5   2/ 8
28.8N   86.0W              74 80  360/ 12/ 16 1016.1    3/ 4
PANAMA CITY BEAC           74 76  340/  4/  5 1016.2R
CAPE SAN BLAS    NOT AVBL
TOWER C                    72     290/ 11/ 13 1015.6F
28.5N   84.5W              74 80  360/ 12/ 16 1015.4R   1/ 4

$$
FLZ011-016>038-118-127-128-134-139-239-260000-
NORTH FLORIDA

CITY           SKY/WX    TMP DP  RH WIND       PRES   REMARKS
MARIANNA       CLEAR     73  52  47 NW3       30.00S
TALLAHASSEE    CLEAR     73  46  38 W5        29.99S
PERRY          CLEAR     68  50  52 NW3       29.99R
CROSS CITY       N/A     69  56  62 W5        29.97R
LAKE CITY      FAIR      64  54  68 CALM      29.97S
GAINESVILLE    CLEAR     66  53  63 CALM      29.97R
MAYPORT NAS    CLEAR     68  50  52 NE5       29.97R
JACKSONVILLE   CLEAR     65  52  62 E5        29.97R
JAX NAS        CLEAR     74  51  44 E5        29.97R
JAX CRAIG      CLEAR     66  53  63 E3        29.97R
JAX CECIL      CLEAR     64  57  77 CALM      29.97R
FERNANDINA BEA FAIR      72  54  53 CALM      29.96R
ST AUGUSTINE   CLEAR     69  54  58 N5        29.98R

STATION/POSITION SKY/WX   TEMP    WIND        PRES    WAVE   SWELL
                          AIR SEA DIR/SP/G            HT/PER HT/PER
                          (F)     (DEG/KT/KT) (MB)    (FT/S) (FT/S)
SHELL POINT                77     340/  6/  9   N/A
KEATON BEACH               72     300/  9/ 10 1015.4R
CEDAR KEY                  73     320/  4/  5 1015.3R
FERNANDINA                 70 73  100/  1/  4 1014.3R
30.7N   81.3W                 75                N/A     2/11
MAYPORT                    71 75   50/  4/  5   N/A
31.4N   80.9W              70 75   40/  4/  4 1014.7F   2/ 9   2/ 9
ST AUGUSTINE               71      30/  9/ 10 1015.5R

$$
FLZ040-043>046-052-053-057-058-063-144-260000-
INTERIOR CENTRAL FLORIDA

CITY           SKY/WX    TMP DP  RH WIND       PRES   REMARKS
OCALA          CLEAR     68  48  49 CALM      29.97S
THE VILLAGES     N/A     72  50  46 W3        29.87R
LEESBURG       CLEAR     70  51  51 N3        29.97R
SANFORD        CLEAR     72  58  61 NE6       29.95R
ORLANDO EXEC   CLEAR     77  56  48 N6        29.95R
ORLANDO INTL   PTCLDY    74  53  48 NW6       29.95R
KISSIMMEE      CLEAR     75  55  50 NW7       29.95S
WINTER HAVEN   CLEAR     73  54  51 N7        29.97R
LAKELAND       CLEAR     72  54  53 N5        29.96R
BARTOW         FAIR      73  54  49 NW6       29.96R
OKEECHOBEE     CLEAR    N/A N/A N/A MISG      29.94R

$$
FLZ041-047-054-059-064-141-147-260000-
EAST CENTRAL FLORIDA

CITY           SKY/WX    TMP DP  RH WIND       PRES   REMARKS
ORMOND BEACH   CLEAR     68  57  68 CALM      29.96S
DAYTONA BEACH  PTCLDY    71  58  63 N8        29.96S
DELAND         PTCLDY    70  59  68 N5        29.97S
NEW SMYRNA BEA CLEAR     72  59  64 N9        29.96S
JFK SPACE CTR  CLEAR     69  60  71 N6        29.95R
CAPE CANAVERAL CLEAR     72  60  67 N6        29.94R
PATRICK AFB    CLEAR     73  62  66 N10       29.94R
MELBOURNE      CLEAR     74  61  63 N12       29.94R
VERO BEACH     CLEAR     71  61  70 N7        29.93R
FT PIERCE      CLEAR     73  61  65 N6        29.93R
STUART         PTCLDY    73  63  68 N9G17     29.93R

STATION/POSITION SKY/WX   TEMP    WIND        PRES    WAVE   SWELL
                          AIR SEA DIR/SP/G            HT/PER HT/PER
                          (F)     (DEG/KT/KT) (MB)    (FT/S) (FT/S)
28.5N   80.2W              75 80  350/ 17/ 21 1013.5R
28.9N   78.5W              76 82  360/ 16/ 19 1013.0R   4/ 5   2/ 8
TRIDENT PIER               72 78   10/  6/ 10 1013.4S
28.4N   80.5W                 78                N/A     2/10
27.6N   80.2W                 79                N/A     4/ 5   2/11

$$
FLZ050-056-061-142-242-148-248-149-249-151-251-155-255-
160-260-260000-
WEST CENTRAL FLORIDA

CITY           SKY/WX    TMP DP  RH WIND       PRES   REMARKS
CRYSTAL RIVER  FAIR      68  55  64 W3        29.97S
INVERNESS      FAIR      64  54  68 CALM      29.98R
BROOKSVILLE    CLEAR     69  55  60 NW5       29.98R
ZEPHYRHILLS    FAIR      68  50  52 CALM      29.97S
CLEARWATER     CLEAR     71  54  54 N8        29.96R
TAMPA INTL     CLEAR     72  52  49 N9        29.97R
PLANT CITY     CLEAR     73  48  40 N3        29.98R
MACDILL AFB    CLEAR     72  56  58 N7        29.96R
ST PETERSBURG  CLEAR     73  55  53 N9        29.94R
SARASOTA       CLEAR     70  54  56 NW9       29.94R
VENICE           N/A     73  57  56 N8        29.95S

STATION/POSITION SKY/WX   TEMP    WIND        PRES    WAVE   SWELL
                          AIR SEA DIR/SP/G            HT/PER HT/PER
                          (F)     (DEG/KT/KT) (MB)    (FT/S) (FT/S)
CEDAR KEY                  73     320/  4/  5 1015.3R
28.5N   84.5W              74 80  360/ 12/ 16 1015.4R   1/ 4
27.3N   84.3W                 81                N/A     2/ 4
CLEARWATER BEACH NOT AVBL
MIDDLE TAMPA BAY           74     350/ 13/ 14 1014.5R
VENICE                     74 78  340/ 15/ 16 1013.6R

$$
FLZ066-069-070-075>078-162-262-165-265-260000-
SOUTHWEST FLORIDA AND KEYS

CITY           SKY/WX    TMP DP  RH WIND       PRES   REMARKS
PUNTA GORDA    CLEAR     74  57  55 N5        29.95R
FT MYERS       CLEAR     75  61  61 W9        29.92R
SOUTHWEST INTL CLEAR     76  56  49 N5        29.93R
NAPLES         CLEAR     76  62  62 NW10      29.92R
MARATHON       CLEAR     77  65  66 N9        29.90R
KEY WEST NAS   PTCLDY    76  63  64 N12       29.91S
KEY WEST INTL  CLEAR     76  66  71 N9        29.91S

STATION/POSITION SKY/WX   TEMP    WIND        PRES    WAVE   SWELL
                          AIR SEA DIR/SP/G            HT/PER HT/PER
                          (F)     (DEG/KT/KT) (MB)    (FT/S) (FT/S)
VENICE                     74 78  340/ 15/ 16 1013.6R
NAPLES                     76 82  320/ 17/ 19 1013.6R
26.0N   85.6W              77 81  360/ 12/ 14 1015.5S   3/ 5   2/ 5
DRY TORTUGAS               76     360/ 16/ 18 1013.2S
NW FL BAY                  79     330/ 12/ 14 1012.3R
SAND KEY                   76     360/ 14/ 17 1012.9R
SOMBRERO KEY               77     340/ 14/ 15 1013.2R
LONG KEY                   78 78  340/ 11/ 12 1012.9R
MOLASSES REEF              79 81   30/ 16/ 17 1012.0R

$$
FLZ067-068-071>074-168-172>174-260000-
SOUTHEAST FLORIDA

CITY           SKY/WX    TMP DP  RH WIND       PRES   REMARKS
W PALM BEACH   PTCLDY    76  65  68 N10       29.90R
FT LAUDER-EXEC CLEAR     77  62  59 N7        29.90R
FT LAUDERDALE  PTCLDY    77  63  61 NE6       29.90R
POMPANO BEACH  PTCLDY    78  63  59 N8        29.90R
PEMBROKE PINES CLEAR     76  60  57 NE7       29.91R
OPA LOCKA      CLEAR     77  60  55 NE8       29.90R
MIAMI          PTCLDY    77  60  55 NE8       29.90R
WEST KENDALL   MOCLDY    80  61  52 NE10      29.90R
HOMESTEAD      PTCLDY    76  64  66 NE10      29.90R

STATION/POSITION SKY/WX   TEMP    WIND        PRES    WAVE   SWELL
                          AIR SEA DIR/SP/G            HT/PER HT/PER
                          (F)     (DEG/KT/KT) (MB)    (FT/S) (FT/S)
PORT EVERGLADES            78      50/  7/ 14 1012.3
VIRGINIA KEY               77 80   30/  4/  8 1012.8R
LAKE WORTH                 76 79  350/ 15/ 21 1012.3R
FOWEY ROCKS                78 81   30/ 17/ 20 1012.4R
SETTLEMENT POINT           77      10/ 13/ 15 1012.9R

$$




USA.gov is the U.S. government's official web portal to all federal, state and local government web resources and services.